weather.gov     
National Weather Service

Terminal Aerodrome Forecast
NWS Homepage
This page is being discontinued on March 12, 2014.
The same data is available at this site. Please update your bookmarks.
Thank you, and we apologize for the inconvenience.
Please send an email to SR-SRH.Webmaster@noaa.gov with any concerns.


Current Version
Previous Version:    01  02  03  04  05  06  07  08  09  10  11  12  13  14  15  16  17  18  19  20  21  22  23  24  25  26  27  28  29  30  
   31  32  33  34  35  36  37  38  39  40  41  42  43  44  45  46  47  48  49  50  51  52  53  54  55  
[Printable]
765
FTUS43 KAPX 011100
TAFAPN
TAF
KAPN 011123Z 0112/0212 06003KT 2SM BR OVC003
     FM011400 09003KT 5SM BR OVC004
     FM011700 12006KT P6SM OVC006
     FM012000 13008KT P6SM BKN015
     FM020000 15003KT P6SM SCT020
     FM020200 16003KT 2SM BR SCT004
     FM020500 16003KT 1/2SM FG SCT002=


U.S. Dept. of Commerce
NOAA National Weather Service
1325 East West Highway
Silver Spring, MD 20910
E-mail: w-nws.webmaster@noaa.gov
Page last modified: May 16, 2007
NATIONAL WEATHER SERVICE: for Safety, for Work, for Fun - FOR LIFE